• Join FlightAware (Why Join?)
  • Login
  • US Flag 
02:26AM EST


 

Airport Tracker/Info


-or-


 

Live Flight TrackerFlight Track Log ✈ CTL335 ✈ 02-May-2013 ✈ KBKL - KPTK

Flight Track Log - Related Links

Times and Time Zones

All times are in EDT time to prevent confusion due to time zone crossing. See the CTL335 flight status page for this flight to view local times or setup timezone preferences in your user account.

Time Position Orientation Groundspeed Altitude Reporting Facility
EDT Latitude Longitude Course Direction KTS MPH feet Rate Location/Type
10:04PM 41.5275 -81.6731 325° Northwest 128 147 900  Level Cleveland Center
10:05PM 41.5397 -81.6844 325° Northwest 144 166 1,300 987 Climbing Cleveland Center
10:05PM 41.5708 -81.7128 326° Northwest 164 189 2,200 843 Climbing Cleveland Center
10:07PM 41.5911 -81.7742 294° West 172 198 3,000 635 Climbing Cleveland Center
10:07PM 41.5969 -81.7992 287° West 173 199 3,100 492 Climbing Cleveland Center
10:08PM 41.6133 -81.8303 305° West 177 204 3,500 682 Climbing Cleveland Center
10:09PM 41.6628 -81.8978 314° West 197 227 4,600 725 Climbing Cleveland Center
10:10PM 41.6975 -81.9486 312° West 182 209 5,300 650 Climbing Cleveland Center
10:11PM 41.7283 -81.9936 313° West 176 203 5,900 350 Climbing Cleveland Center
10:12PM 41.7589 -82.0444 309° West 169 194 6,000 50 Climbing Cleveland Center
10:13PM 41.7936 -82.0956 312° West 180 207 6,000  Level Cleveland Center
10:14PM 41.8242 -82.1436 310° West 185 213 6,000  Level Cleveland Center
10:15PM 41.8589 -82.1972 311° West 190 219 6,000 50 Level Cleveland Center
10:16PM 41.8958 -82.2486 314° West 190 219 6,100  Climbing Cleveland Center
10:17PM 41.9242 -82.3050 304° West 190 219 6,000  Descending Cleveland Center
10:18PM 41.9650 -82.3564 317° Northwest 190 219 6,100 125 Climbing Cleveland Center
10:19PM 41.9875 -82.3906 312° West 186 214 6,200  Climbing Cleveland Center
10:19PM 41.9975 -82.4075 308° West 190 219 6,100  Descending Cleveland Center
10:20PM 42.0303 -82.4533 314° West 191 220 6,200  Climbing Cleveland Center
10:20PM 42.0342 -82.4589 313° West 190 219 6,100 -82 Descending Cleveland Center
10:21PM 42.0708 -82.5189 309° West 195 224 6,100 -52 Level Cleveland Center
10:22PM 42.1075 -82.5703 314° West 190 219 6,000 -55 Descending Cleveland Center
10:23PM 42.1358 -82.6133 312° West 192 221 6,000  Level Cleveland Center
10:23PM 42.1419 -82.6189 326° Northwest 185 213 6,000 111 Level Cleveland Center
10:24PM 42.1683 -82.6592 311° West 193 222 6,100 100 Climbing Cleveland Center
10:24PM 42.1764 -82.6733 308° West 185 213 6,100 -197 Level Cleveland Center
10:25PM 42.2050 -82.7136 314° West 192 221 5,900 -300 Descending Cleveland Center
10:25PM 42.2131 -82.7250 314° West 185 213 5,800 -295 Descending Cleveland Center
10:26PM 42.2414 -82.7681 312° West 202 232 5,600 -200 Descending Cleveland Center
10:26PM 42.2517 -82.7797 320° Northwest 185 213 5,600 -200 Level Cleveland Center
10:27PM 42.2800 -82.8256 310° West 200 230 5,400 -200 Descending Cleveland Center
10:27PM 42.2881 -82.8342 322° Northwest 185 213 5,400 -269 Level Cleveland Center
10:28PM 42.3225 -82.8889 310° West 199 229 5,100 -261 Descending Cleveland Center
10:29PM 42.3631 -82.9464 314° West 200 230 4,900 -283 Descending Cleveland Center
10:30PM 42.4033 -83.0069 312° West 201 231 4,500 -313 Descending Cleveland Center
10:31PM 42.4336 -83.0533 311° West 199 229 4,300 -295 Descending Cleveland Center
10:32PM 42.4761 -83.1197 311° West 196 226 3,900 -283 Descending Cleveland Center
10:33PM 42.5122 -83.1747 312° West 189 217 3,700 -347 Descending Cleveland Center
10:34PM 42.5444 -83.2322 307° West 195 224 3,200 -443 Descending Cleveland Center
10:35PM 42.5764 -83.2872 308° West 196 226 2,800 -446 Descending Cleveland Center
10:36PM 42.6125 -83.3508 308° West 195 224 2,300 -417 Descending Cleveland Center
10:37PM 42.6342 -83.4025 300° West 187 215 2,000 -443 Descending Cleveland Center
10:38PM 42.6578 -83.4517 303° West 139 160 1,400 -537 Descending Cleveland Center